Preview of NWS' New Version of Forecast
This preview is not operational and should not be used for support decisions.

Regional Weather Roundup (RWR)

Issued by National Weather Service (NWS)

                            
000
ASUS45 KBOI 230210
RWRID 

IDAHO REGIONAL WEATHER ROUNDUP
NATIONAL WEATHER SERVICE BOISE ID
700 PM MST FRI FEB 22 2019

NOTE: "FAIR" INDICATES FEW OR NO CLOUDS BELOW 12000 FEET
WITH NO SIGNIFICANT WEATHER AND/OR OBSTRUCTIONS TO VISIBILITY

IDZ012-014-230300-
SOUTHWEST IDAHO

  
CITY           SKY/WX    TMP DP  RH WIND       PRES   REMARKS
BOISE          MOCLDY    28  17  63 SE10      30.05R WCI  19          
CALDWELL       MOCLDY    32  23  69 E10       30.06R WCI  24          
MOUNTAIN HOME  PTCLDY    29  27  92 NE6       30.05S WCI  23          
$$

IDZ016-017-230300-
SOUTHCENTRAL IDAHO

  
CITY           SKY/WX    TMP DP  RH WIND       PRES   REMARKS
BURLEY         CLEAR     20  13  74 S6        30.01R WCI  12          
JEROME         PTCLDY    24  15  68 SW7       30.02R WCI  16          
TWIN FALLS     CLEAR     17  11  77 S8        30.03R WCI   7          
$$

IDZ019>023-230300-
SOUTHEAST IDAHO

  
CITY           SKY/WX    TMP DP  RH WIND       PRES   REMARKS
IDAHO FALLS    LGT SNOW  17  12  80 SW7       30.00R WCI   8          
POCATELLO      MOCLDY    21  16  81 S6        30.01S WCI  13          
REXBURG        LGT SNOW  13   8  81 NE6       29.99R WCI   4          
$$

IDZ006-010-011-018-031-032-230300-
CENTRAL IDAHO MOUNTAINS

  
CITY           SKY/WX    TMP DP  RH WIND       PRES   REMARKS
MCCALL         CLOUDY    16   8  71 CALM      29.90R                  
HAILEY         PTCLDY     9   7  92 W3        29.95R                  
STANLEY          N/A      9   0  67 SW5       29.88R WCI   1          
SALMON         PTCLDY    14   5  67 E5        29.94R WCI   6          
CHALLIS        CLEAR      8  -1  66 CALM      29.90R                  
$$

IDZ002-004-006-007-026-230300-
NORTHERN IDAHO

  
CITY           SKY/WX    TMP DP  RH WIND       PRES   REMARKS
LEWISTON       CLOUDY    26  18  71 S5        29.95F WCI  20          
LOWELL         NOT AVBL                                               
COEUR D'ALENE  LGT SNOW  26  23  88 S8        29.89R FOG     WCI  18  
MULLAN PASS    LGT SNOW  13  10  88 VRB6      29.69F FOG     WCI   4  
$$